Location: Saint Louis
(38.6272°N, 90.1978°W)
Time: 00:34:58
(UTC-05:00)

Hubble Space Telescope - Visible Passes

Search period start: 27 April 2015 00:00
Search period end: 07 May 2015 00:00
Orbit: 542 x 546 km, 28.5° (Epoch: 25 April)

Date Brightness Start Highest point End Pass type
(mag) Time Alt. Az. Time Alt. Az. Time Alt. Az.
30 Apr 3.0 21:17:27 10° SSW 21:18:06 12° S 21:18:06 12° S visible
01 May 2.7 21:08:16 10° SSW 21:10:29 15° S 21:10:29 15° S visible
02 May 2.5 20:59:16 10° SSW 21:01:55 17° S 21:02:44 16° SSE visible
03 May 2.5 20:50:22 10° SW 20:53:13 18° S 20:54:51 15° SE visible
04 May 2.4 20:41:32 10° SW 20:44:31 19° S 20:46:53 13° SE visible
05 May 2.4 20:32:45 10° SW 20:35:49 20° S 20:38:49 10° SE visible
05 May 3.3 22:13:52 10° SW 22:14:17 11° SW 22:14:17 11° SW visible
06 May 2.4 20:24:01 10° SW 20:27:06 20° S 20:30:10 10° SE visible
06 May 3.2 22:05:27 10° SW 22:06:09 12° SW 22:06:09 12° SW visible
